カタログに戻る

SL-16 DEB

運用中LEO
NORAD 22416·DEBRIS·🇷🇺 Russia

打ち上げ Dec 25, 1992 から Baikonur Cosmodrome

Loading…

次のパス (今後24時間)

TLE

最新Source: Space-Track

元期: Sep 14, 2026, 15:15 UTC

1 22416U 92093DH  26257.63561012 -.00000051  00000-0 -23935-5 0  9999
2 22416  70.9606 318.7749 0080440 220.2983 294.3338 14.06321266728208

AllMySatでSL-16 DEBをリアルタイム追跡

Download on the App Store